[[{"header":{"parameterUnit":"m.s-1","parameterCategory":1,"la1":30.2991,"la2":30.254,"lo1":-89.0895,"lo2":-89.0444,"dy":0.0017,"dx":0.0017,"nx":28,"ny":28,"refTime":"2024-12-06T09:00:00:Z","depth":0,"parameterNumber":2,"parameterNumberName":"U-component_of_WINDS"},"data":[0,0,0,0,0,0,0,0,0,0,0,0,0,0,0,0,0,0,0,0,0,0,0,0,0,0,0,0,0,0,0,0,0,0,0,0,0,0,0,0,0,0,0,0,0,0,0,0,0,0,0,0,0,0,0,0,0,0,-3.6974,-3.6974,0,-3.7002,-3.7002,-3.7003,-3.6884,-3.6881,-3.6877,-3.6874,-3.6905,-3.6909,-3.6913,0,0,0,0,0,0,0,0,0,0,0,0,0,-3.6819,-3.6823,-3.6974,-3.6974,-3.6974,-3.7002,-3.7002,-3.7003,-3.6885,-3.688,-3.6876,-3.6872,-3.6904,-3.6908,-3.6913,0,0,0,0,0,0,0,0,0,0,0,0,0,-3.6871,-3.6824,-3.6974,-3.6919,-3.6914,-3.7002,-3.7002,-3.7003,-3.6886,-3.688,-3.6875,-3.687,-3.6902,-3.6908,-3.6914,-3.7057,0,0,-3.6933,-3.6935,0,0,0,0,0,0,0,0,-3.6868,-3.6877,-3.6927,-3.6923,-3.6918,-3.6934,-3.6959,-3.7021,-3.6887,-3.6897,-3.6874,-3.6868,-3.6919,-3.6923,-3.694,-3.7058,-3.7059,-3.6933,-3.6937,-3.694,-3.6941,0,0,0,0,0,0,0,-3.6865,-3.6875,-3.6985,-3.6927,-3.6922,-3.6893,-3.6895,-3.697,-3.6937,-3.6895,-3.6887,-3.6892,-3.6916,-3.6935,-3.694,-3.706,-3.6933,-3.6939,-3.6942,-3.6945,-3.7297,-3.7302,0,0,0,0,0,0,-3.6868,-3.6873,-3.6984,-3.6986,-3.688,-3.69,-3.6902,-3.6934,-3.6936,-3.6931,-3.6896,-3.6886,-3.6927,-3.6933,-3.6941,-3.7109,-3.694,-3.6945,-3.6949,-3.7291,-3.7298,-3.7304,0,0,0,0,0,0,-3.6865,-3.6879,-3.6983,-3.6927,-3.6938,-3.6909,-3.6946,-3.6937,-3.6956,-3.6936,-3.693,-3.6922,-3.6923,-3.6932,-3.7029,-3.7108,-3.6948,-3.6954,-3.7284,-3.7293,-3.7301,-3.7445,0,0,0,0,0,0,-3.6862,-3.6879,-3.6932,-3.6929,-3.6941,-3.707,-3.695,-3.6942,-3.6967,-3.6954,-3.6958,-3.6954,-3.692,-3.702,-3.7035,-3.7114,-3.6958,-3.7277,-3.7288,-3.7298,-3.7433,-3.7458,-3.7478,0,0,0,0,0,-3.6856,-3.6972,-3.6936,-3.695,-3.7007,-3.7075,-3.7082,-3.7039,-3.6974,-3.7028,-3.7015,-3.6954,-3.7097,-3.7031,-3.7046,-3.7128,-3.7272,-3.7285,-3.7297,-3.7423,-3.7453,-3.7478,0,0,0,0,0,0,-3.6986,-3.6971,-3.693,-3.7048,-3.7064,-3.7055,-3.7121,-3.7072,-3.7107,-3.7093,-3.7039,-3.7041,-3.7148,-3.7147,-3.7074,-3.7267,-3.7173,-3.719,-3.7263,-3.7291,-3.7314,-3.7312,-3.6964,0,0,0,0,0,-3.7029,-3.7084,-3.7067,-3.7173,-3.7183,-3.7151,-3.7179,-3.7145,-3.7159,-3.7165,-3.7159,-3.7176,-3.7224,-3.7257,-3.7301,-3.7432,-3.7432,-3.7496,-3.7518,-3.7537,-3.7553,-3.7623,-3.7652,-3.7346,-3.7346,-3.7346,0,0,-3.7117,-3.7115,-3.7154,-3.72,-3.7207,-3.7267,-3.7158,-3.7225,-3.7269,-3.7175,-3.7266,-3.7263,-3.7278,-3.7393,-3.7443,-3.7396,-3.7637,-3.7553,-3.7568,-3.7574,-3.7639,-3.7668,-3.7694,-3.7355,-3.7353,-3.7352,0,0,-3.7309,-3.7312,-3.7401,-3.7411,-3.7425,-3.7403,-3.7424,-3.7423,-3.7417,-3.7507,-3.7438,-3.7489,-3.7574,-3.7588,-3.7606,-3.7803,-3.7749,-3.7818,-3.7937,-3.8007,-3.8031,-3.8052,-3.8124,-3.815,-3.7833,-3.7834,-3.7834,0,-3.7417,-3.7503,-3.7453,-3.7526,-3.7549,-3.7465,-3.7556,-3.7568,-3.7596,-3.7614,-3.756,-3.7664,-3.7668,-3.7786,-3.7834,-3.7851,-3.7875,-3.7819,-3.8031,-3.8052,-3.8071,-3.8139,-3.8166,-3.7842,-3.7841,-3.784,-3.784,0,-3.7636,-3.7698,-3.7768,-3.7796,-3.7826,-3.7907,-3.7871,-3.7907,-3.787,-3.7854,-3.7948,-3.795,-3.7992,-3.8017,-3.7982,-3.813,-3.8101,-3.804,-3.7945,-3.8109,-3.8172,-3.8198,-3.7855,-3.7851,-3.7849,-3.7847,0,0,-3.7912,-3.7911,-3.7938,-3.795,-3.7959,-3.8005,-3.8083,-3.8124,-3.8157,-3.8178,-3.8243,-3.8316,-3.826,-3.8281,-3.8246,-3.8307,-3.8464,-3.8238,-3.8238,-3.8282,-3.863,-3.8677,-3.8708,-3.8428,-3.8432,-3.8436,-3.8629,0,-3.8101,-3.8233,-3.8191,-3.8325,-3.8381,-3.8303,-3.8371,-3.8384,-3.8371,-3.8417,-3.8402,-3.8456,-3.8377,-3.8389,-3.8446,-3.8433,-3.8534,-3.8418,-3.8489,-3.8492,-3.8489,-3.874,-3.879,-3.8972,-3.8653,-3.8657,-3.866,0,-3.834,-3.837,-3.851,-3.851,-3.8532,-3.8593,-3.8628,-3.8673,-3.8686,-3.8672,-3.8696,-3.8648,-3.8725,-3.8629,-3.8735,-3.8657,-3.8683,-3.8681,-3.8687,-3.8694,-3.8587,-3.8755,-3.9029,-3.9057,-3.8698,-3.8695,-3.8692,0,-3.8529,-3.8605,-3.8698,-3.8711,-3.8712,-3.8758,-3.876,-3.8768,-3.8796,-3.8826,-3.8844,-3.8883,-3.8905,-3.8937,-3.8902,-3.8835,-3.9014,-3.8914,-3.9006,-3.9007,-3.9048,-3.9047,-3.9332,-3.9063,-3.9062,-3.9062,-3.9061,0,-3.8745,-3.8835,-3.8784,-3.8842,-3.8939,-3.8889,-3.8988,-3.8981,-3.8989,-3.9045,-3.898,-3.9034,-3.8983,-3.9032,-3.9005,-3.9098,-3.9108,-3.91,-3.9092,-3.9107,-3.9108,-3.9124,-3.9112,-3.9069,-3.9067,-3.9066,-3.9065,0,-3.8974,-3.8943,-3.904,-3.9033,-3.9034,-3.9106,-3.91,-3.9154,-3.9136,-3.9208,-3.9222,-3.9194,-3.9249,-3.9216,-3.9272,-3.9254,-3.9375,-3.9349,-3.9371,-3.9365,-3.9459,-3.9451,-3.9766,-3.9805,-3.9509,-3.9512,-3.9515,0,-3.9115,-3.9182,-3.9182,-3.9214,-3.9221,-3.9275,-3.9302,-3.9256,-3.9288,-3.9308,-3.936,-3.9409,-3.9446,-3.9538,-3.9523,-3.9566,-3.9541,-3.9649,-3.9548,-3.9561,-3.9545,-3.9542,-3.9549,-3.967,-3.9673,-3.9676,-3.9678,0,-3.937,-3.9351,-3.9393,-3.9431,-3.9466,-3.9494,-3.9516,-3.9546,-3.95,-3.9539,-3.9594,-3.9623,-3.968,-3.9731,-3.9767,-3.977,-3.9718,-3.971,-3.9734,-3.9751,-3.9762,-3.9759,-3.9429,-3.9704,-3.9701,-3.9699,-3.9698,-3.9697,-3.956,-3.9616,-3.9625,-3.9675,-3.9686,-3.9708,-3.9759,-3.9747,-3.9792,-3.9834,-3.9804,-3.987,-3.9882,-3.9925,-3.9935,-3.9987,-3.9943,-3.9977,-3.9986,-3.9996,-4.001,-3.9752,-3.9993,-3.9992,-3.9991,-3.9991,-3.999,0,-3.9812,-3.9814,-3.986,-3.9893,-3.9933,-3.9878,-3.99,-3.9937,-3.9995,-4.001,-4.0048,-4.0112,-4.016,-4.0149,-4.0193,-4.0236,-4.0214,-4.025,-4.0247,-4.0249,-4.0045,-4.0021,-4.0268,-4.0268,-4.0268,-4.0267,-4.0267,-4.0267,-3.9949,-4.0041,-4.0024,-4.0121,-4.0122,-4.0186,-4.0203,-4.0223,-4.0235,-4.031,-4.0349,-4.0341,-4.0346,-4.039,-4.0432,-4.0427,-4.0448,-4.0493,-4.048,-4.029,-4.0263,-4.0237,-4.0214,-4.0497,-4.0498,-4.068,-4.0681,-4.0683]},{"header":{"parameterUnit":"m.s-1","parameterCategory":1,"la1":30.2991,"la2":30.254,"lo1":-89.0895,"lo2":-89.0444,"dy":0.0017,"dx":0.0017,"nx":28,"ny":28,"refTime":"2024-12-06T09:00:00:Z","depth":0,"parameterNumber":3,"parameterNumberName":"V-component_of_WINDS"},"data":[0,0,0,0,0,0,0,0,0,0,0,0,0,0,0,0,0,0,0,0,0,0,0,0,0,0,0,0,0,0,0,0,0,0,0,0,0,0,0,0,0,0,0,0,0,0,0,0,0,0,0,0,0,0,0,0,0,0,-3.1132,-3.1132,0,-3.1148,-3.1148,-3.1149,-3.1109,-3.1107,-3.1106,-3.1105,-3.1121,-3.1123,-3.1124,0,0,0,0,0,0,0,0,0,0,0,0,0,-3.1063,-3.1064,-3.1132,-3.1132,-3.1132,-3.1148,-3.1149,-3.1149,-3.1109,-3.1107,-3.1106,-3.1104,-3.112,-3.1122,-3.1124,0,0,0,0,0,0,0,0,0,0,0,0,0,-3.1088,-3.1065,-3.1132,-3.1114,-3.1113,-3.1148,-3.1149,-3.1149,-3.1109,-3.1107,-3.1105,-3.1104,-3.112,-3.1122,-3.1125,-3.1178,0,0,-3.1132,-3.1133,0,0,0,0,0,0,0,0,-3.1086,-3.109,-3.1116,-3.1115,-3.1114,-3.1124,-3.113,-3.1158,-3.111,-3.111,-3.1105,-3.1103,-3.1124,-3.1126,-3.1133,-3.1178,-3.1179,-3.1132,-3.1134,-3.1135,-3.1135,0,0,0,0,0,0,0,-3.1085,-3.1089,-3.1138,-3.1117,-3.1115,-3.1105,-3.1106,-3.1135,-3.1127,-3.111,-3.1107,-3.111,-3.1123,-3.1131,-3.1133,-3.1179,-3.1132,-3.1134,-3.1136,-3.1137,-3.1267,-3.1269,0,0,0,0,0,0,-3.1085,-3.1088,-3.1138,-3.1139,-3.1095,-3.1107,-3.1109,-3.1123,-3.1127,-3.1126,-3.1112,-3.1108,-3.1127,-3.113,-3.1133,-3.1195,-3.1135,-3.1137,-3.1138,-3.1265,-3.1268,-3.127,0,0,0,0,0,0,-3.1084,-3.109,-3.1137,-3.1113,-3.1118,-3.1111,-3.1127,-3.1124,-3.1132,-3.1128,-3.1126,-3.1121,-3.1126,-3.113,-3.1167,-3.1195,-3.1138,-3.114,-3.1263,-3.1266,-3.1269,-3.1319,0,0,0,0,0,0,-3.1082,-3.109,-3.1111,-3.1113,-3.1119,-3.1171,-3.1128,-3.1126,-3.1137,-3.1132,-3.1137,-3.1136,-3.1125,-3.1163,-3.1169,-3.1197,-3.1142,-3.126,-3.1264,-3.1268,-3.1315,-3.1323,-3.133,0,0,0,0,0,-3.108,-3.1124,-3.1112,-3.1118,-3.1145,-3.1172,-3.1176,-3.1163,-3.1139,-3.1159,-3.1156,-3.1136,-3.1191,-3.1167,-3.1173,-3.1203,-3.1259,-3.1263,-3.1268,-3.1311,-3.1321,-3.133,0,0,0,0,0,0,-3.1125,-3.1124,-3.1111,-3.1157,-3.1165,-3.1166,-3.1191,-3.1174,-3.1189,-3.1184,-3.1167,-3.1168,-3.1208,-3.1209,-3.1183,-3.1253,-3.1221,-3.1227,-3.1251,-3.1261,-3.1269,-3.1268,-3.1144,0,0,0,0,0,-3.114,-3.1163,-3.1161,-3.1202,-3.1207,-3.1198,-3.121,-3.1199,-3.1206,-3.1209,-3.1209,-3.1217,-3.1235,-3.1248,-3.1266,-3.1314,-3.1314,-3.1337,-3.1345,-3.1352,-3.1357,-3.1382,-3.1392,-3.1285,-3.1285,-3.1285,0,0,-3.1173,-3.1175,-3.119,-3.1211,-3.1216,-3.124,-3.1202,-3.1228,-3.1245,-3.1213,-3.1248,-3.1248,-3.1255,-3.1298,-3.1316,-3.13,-3.1387,-3.1358,-3.1363,-3.1365,-3.1387,-3.1398,-3.1407,-3.1288,-3.1287,-3.1287,0,0,-3.1243,-3.1247,-3.1281,-3.1287,-3.1295,-3.1288,-3.1296,-3.1299,-3.1298,-3.1332,-3.1308,-3.1328,-3.1361,-3.1367,-3.1374,-3.1445,-3.1426,-3.1451,-3.1492,-3.1517,-3.1525,-3.1532,-3.1557,-3.1566,-3.1456,-3.1456,-3.1456,0,-3.1282,-3.1316,-3.1301,-3.1329,-3.1338,-3.1311,-3.1344,-3.135,-3.1363,-3.137,-3.1351,-3.1391,-3.1395,-3.1437,-3.1455,-3.1462,-3.147,-3.145,-3.1525,-3.1532,-3.1539,-3.1562,-3.1571,-3.1459,-3.1459,-3.1459,-3.1458,0,-3.1363,-3.1387,-3.1414,-3.1427,-3.1439,-3.147,-3.1459,-3.1473,-3.146,-3.1456,-3.149,-3.1493,-3.1509,-3.1519,-3.1507,-3.156,-3.1549,-3.1528,-3.1495,-3.1552,-3.1574,-3.1582,-3.1464,-3.1462,-3.1462,-3.1461,0,0,-3.1463,-3.1466,-3.1476,-3.1481,-3.1487,-3.1505,-3.1534,-3.155,-3.1562,-3.1572,-3.1595,-3.1623,-3.1603,-3.1611,-3.16,-3.1621,-3.1676,-3.1597,-3.1597,-3.1611,-3.1733,-3.1748,-3.1759,-3.1663,-3.1665,-3.1666,-3.1732,0,-3.1532,-3.1582,-3.1568,-3.1618,-3.1639,-3.1612,-3.1637,-3.1643,-3.1639,-3.1656,-3.1652,-3.1672,-3.1644,-3.1649,-3.1669,-3.1665,-3.17,-3.166,-3.1684,-3.1685,-3.1683,-3.177,-3.1787,-3.1849,-3.174,-3.1742,-3.1743,0,-3.1619,-3.1632,-3.1683,-3.1684,-3.1693,-3.1715,-3.1728,-3.1745,-3.1751,-3.1746,-3.1755,-3.1739,-3.1766,-3.1732,-3.177,-3.1743,-3.1752,-3.1751,-3.1753,-3.1755,-3.1717,-3.1774,-3.1869,-3.1878,-3.1756,-3.1755,-3.1754,0,-3.1686,-3.1716,-3.175,-3.1755,-3.1757,-3.1774,-3.1775,-3.1779,-3.1789,-3.18,-3.1806,-3.1821,-3.1828,-3.184,-3.1827,-3.1804,-3.1866,-3.1831,-3.1862,-3.1863,-3.1877,-3.1876,-3.1974,-3.1883,-3.1883,-3.1883,-3.1883,0,-3.1764,-3.1797,-3.178,-3.1801,-3.1836,-3.182,-3.1855,-3.1853,-3.1856,-3.1876,-3.1854,-3.1873,-3.1855,-3.1872,-3.1863,-3.1894,-3.1898,-3.1895,-3.1892,-3.1897,-3.1897,-3.1902,-3.1898,-3.1885,-3.1885,-3.1884,-3.1884,0,-3.1845,-3.1836,-3.1871,-3.187,-3.187,-3.1896,-3.1894,-3.1913,-3.1907,-3.1932,-3.1937,-3.1928,-3.1947,-3.1935,-3.1955,-3.1948,-3.1989,-3.1981,-3.1988,-3.1985,-3.2016,-3.2013,-3.2121,-3.2134,-3.2035,-3.2036,-3.2037,0,-3.1896,-3.192,-3.1921,-3.1932,-3.1935,-3.1954,-3.1964,-3.1948,-3.196,-3.1967,-3.1985,-3.2002,-3.2014,-3.2046,-3.204,-3.2055,-3.2046,-3.2082,-3.2048,-3.2052,-3.2046,-3.2044,-3.2046,-3.209,-3.2091,-3.2092,-3.2092,0,-3.1986,-3.198,-3.1995,-3.2008,-3.2021,-3.2031,-3.2038,-3.2049,-3.2033,-3.2047,-3.2066,-3.2075,-3.2095,-3.2111,-3.2123,-3.2124,-3.2106,-3.2103,-3.2111,-3.2116,-3.2119,-3.2117,-3.2006,-3.2101,-3.21,-3.21,-3.2099,-3.2099,-3.2053,-3.2073,-3.2076,-3.2093,-3.2097,-3.2105,-3.2122,-3.2118,-3.2134,-3.2148,-3.2138,-3.216,-3.2163,-3.2177,-3.218,-3.2197,-3.2182,-3.2194,-3.2196,-3.2199,-3.2203,-3.2117,-3.2199,-3.2199,-3.2199,-3.2198,-3.2198,0,-3.2142,-3.2142,-3.2158,-3.2169,-3.2183,-3.2164,-3.2171,-3.2184,-3.2203,-3.2208,-3.2221,-3.2242,-3.2258,-3.2253,-3.2267,-3.2281,-3.2273,-3.2285,-3.2284,-3.2284,-3.2216,-3.2208,-3.2292,-3.2292,-3.2292,-3.2292,-3.2292,-3.2292,-3.2189,-3.2221,-3.2215,-3.2248,-3.2248,-3.227,-3.2275,-3.2282,-3.2285,-3.231,-3.2323,-3.2319,-3.232,-3.2334,-3.2347,-3.2345,-3.2351,-3.2367,-3.2362,-3.2298,-3.2289,-3.228,-3.2272,-3.2368,-3.2368,-3.2428,-3.2429,-3.2429]}]]